This is the latest recevied weather packets stored in our database for station/object N3WMC. If no packets are shown the sender has not sent any weather packets the latest 10 day(s).
| Time | Temp. | Humidity | Pressure | Rain* | Wind** | Luminosity | Snow |
|---|---|---|---|---|---|---|---|
| 1777668858 | 8.33° C | 91% | 1012.6 hPa | 3.05 mm | - | 41 W/m² | - |
| 1777668555 | 8.33° C | 91% | 1012.8 hPa | 1.27 mm | - | 34 W/m² | - |
| 1777668251 | 8.33° C | 90% | 1012.8 hPa | 0 mm | - | 27 W/m² | - |
| 1777667947 | 8.33° C | 89% | 1012.9 hPa | 1.78 mm | - | 31 W/m² | - |
| 1777667644 | 8.33° C | 89% | 1012.6 hPa | 1.78 mm | - | 58 W/m² | - |
| 1777667342 | 8.33° C | 89% | 1012.3 hPa | 0 mm | - | 73 W/m² | - |
| 1777667038 | 8.89° C | 88% | 1012.5 hPa | 1.27 mm | - | 62 W/m² | - |
| 1777666735 | 8.89° C | 87% | 1012.5 hPa | 1.27 mm | - | 46 W/m² | - |
| 1777666432 | 8.89° C | 86% | 1012.5 hPa | 0 mm | - | 65 W/m² | - |
| 1777666129 | 8.89° C | 86% | 1012.6 hPa | 0 mm | - | 48 W/m² | - |
| 1777665826 | 8.89° C | 86% | 1012.5 hPa | 0 mm | - | 69 W/m² | - |
| 1777665524 | 8.89° C | 86% | 1012.4 hPa | 0 mm | - | 88 W/m² | - |
| 1777665219 | 9.44° C | 85% | 1012.4 hPa | 0 mm | - | 77 W/m² | - |
| 1777664915 | 9.44° C | 86% | 1012.1 hPa | 0 mm | - | 79 W/m² | - |
| 1777664611 | 10° C | 84% | 1012.1 hPa | 0 mm | - | 143 W/m² | - |
| 1777664308 | 10° C | 86% | 1012.1 hPa | 0 mm | - | 219 W/m² | - |
| 1777664007 | 9.44° C | 85% | 1012.3 hPa | 0 mm | - | 243 W/m² | - |
| 1777663704 | 9.44° C | 86% | 1012.5 hPa | 1.78 mm | - | 171 W/m² | - |
| 1777663401 | 9.44° C | 85% | 1012.4 hPa | 1.78 mm | - | 181 W/m² | - |
| 1777663098 | 9.44° C | 84% | 1012.6 hPa | 0 mm | - | 152 W/m² | - |
| 1777662795 | 9.44° C | 83% | 1012.9 hPa | 0 mm | - | 153 W/m² | - |
| 1777662491 | 10° C | 83% | 1012.6 hPa | 0 mm | - | 145 W/m² | - |
| 1777662188 | 10° C | 83% | 1012.6 hPa | 0 mm | - | 110 W/m² | - |
| 1777661883 | 10° C | 82% | 1013 hPa | 1.27 mm | - | 90 W/m² | - |
| 1777661579 | 10° C | 81% | 1012.9 hPa | 1.27 mm | - | 114 W/m² | - |
* Rain latest hour (hover to see other rain measurements)
** Current wind speed in m/s (hover to see current wind gust speed)